Theta_e
322 322 324 326 326 326 326 326 325 325 326 326 326 327 327 326 322 304 299 309 312 328 325 306 303 304 305 304 304 301 293 290 291 291 294 294 295 295 294 293 293 295 294 295 296
320 320 321 323 324 325 326 325 324 324 325 325 325 327 327 324 304 300 317 326 329 329 303 302 301 303 300 301 300 296 292 293 294 293 294 294 295 294 293 292 292 291 292 293 294
320 320 320 321 323 324 325 325 325 323 324 324 325 326 325 318 302 299 324 326 326 321 305 302 302 301 298 299 297 295 291 295 296 296 296 295 294 293 293 291 294 293 291 291 292
320 320 320 321 321 322 324 325 325 324 323 323 324 325 323 306 293 303 325 325 322 309 303 300 300 298 296 294 297 294 294 295 298 297 295 294 293 293 292 296 295 294 293 292 291
319 319 319 320 321 322 322 324 324 323 322 323 324 324 309 299 300 306 319 314 304 303 300 298 297 296 294 293 295 293 294 296 296 296 294 293 293 293 291 294 293 291 291 290 291
317 318 319 319 321 321 321 323 324 323 322 323 325 323 306 296 305 304 302 302 301 301 299 299 297 297 295 295 293 293 295 295 295 295 294 293 292 293 293 290 289 289 290 290 290
316 316 318 319 320 321 321 322 323 322 322 323 324 312 301 300 305 302 303 299 300 300 299 299 299 296 297 293 295 293 291 293 292 293 293 293 291 290 293 289 289 287 288 289 289
316 315 316 318 320 320 321 321 321 321 322 323 324 307 298 305 305 303 301 300 301 301 301 300 300 298 295 295 293 290 289 288 291 292 292 292 289 294 291 289 289 287 287 288 288
315 315 316 318 319 319 320 320 319 320 323 323 307 302 297 310 302 303 299 299 299 300 300 302 299 294 294 290 289 288 286 286 289 292 291 290 289 293 289 287 289 287 287 287 288
315 315 315 317 318 319 319 319 317 316 314 310 305 299 298 298 302 302 299 299 297 299 298 297 293 290 289 289 284 284 285 286 285 289 289 288 288 293 291 287 289 289 287 287 287
315 315 315 316 318 320 312 300 298 293 297 296 296 295 297 302 303 299 299 298 297 295 291 292 290 288 289 289 288 287 286 286 286 288 287 287 288 292 295 288 289 288 287 287 287
315 314 314 316 318 319 300 297 296 296 292 295 295 296 298 301 296 298 298 295 293 290 291 290 289 291 291 289 288 286 284 284 286 286 286 285 286 290 292 293 294 292 289 287 288
315 313 313 315 317 303 297 297 302 299 291 293 295 296 297 301 296 296 297 293 290 288 289 287 289 291 290 286 286 284 284 283 285 284 284 282 283 284 288 289 291 291 290 289 288
315 314 313 315 305 298 297 300 302 298 282 286 290 297 300 298 293 296 295 293 289 289 288 289 289 290 287 287 287 284 286 284 283 282 280 283 281 282 286 289 289 291 288 289 287
315 314 313 313 302 296 298 301 298 290 273 287 291 299 297 294 292 292 294 292 289 289 289 288 286 286 286 287 287 285 285 283 282 281 278 279 277 282 281 284 289 290 288 288 286
315 314 313 306 298 297 299 296 293 282 275 284 293 292 292 292 292 292 291 293 291 289 286 288 287 288 288 285 285 286 283 282 278 277 274 281 280 280 281 285 287 288 288 288 285
315 314 310 305 300 298 298 293 282 275 284 283 287 290 288 289 290 290 288 287 286 284 283 286 285 285 287 285 285 283 283 278 275 273 277 277 275 284 286 286 288 290 289 286 284
315 313 311 307 301 300 293 289 276 281 282 288 289 288 287 289 288 289 286 285 288 286 283 283 283 284 286 287 285 282 284 279 273 272 279 273 275 284 286 290 287 285 284 283 283
314 308 306 304 301 299 292 281 281 283 286 286 288 285 285 288 288 286 285 285 288 290 287 283 283 283 284 284 285 281 280 284 276 263 271 280 282 284 285 285 284 283 281 282 283
309 305 305 305 303 298 285 285 284 288 287 287 284 286 282 286 285 285 284 286 288 290 292 288 284 282 282 282 280 282 283 279 278 272 268 279 281 283 285 286 286 285 283 284 283
308 299 303 305 306 297 286 284 285 290 290 288 284 282 283 284 286 283 285 287 289 289 291 289 288 282 281 280 280 279 278 279 280 277 273 274 281 284 286 286 286 287 285 284 284
304 294 301 307 294 294 288 287 291 288 289 289 287 286 284 286 285 283 284 289 291 289 287 288 287 284 284 278 280 280 282 283 279 277 274 274 281 286 287 286 286 287 285 284 283
300 299 301 304 288 289 286 287 290 287 288 288 287 288 288 284 283 285 286 290 290 289 287 288 284 279 282 278 278 279 280 282 280 277 278 275 281 288 284 285 286 285 283 283 282
299 290 293 295 297 292 289 288 287 290 290 288 287 289 285 284 289 286 284 287 289 290 294 293 285 285 281 283 281 278 278 281 282 280 281 280 283 288 290 289 290 285 281 283 282
301 293 292 285 289 292 292 290 289 286 289 290 288 288 287 285 286 285 287 287 286 289 288 288 284 286 287 288 285 281 281 282 279 282 280 284 283 287 290 291 292 293 292 290 281
301 295 295 292 293 290 291 289 288 291 289 287 287 289 289 286 287 285 287 287 287 282 285 285 283 286 283 286 285 282 284 285 283 283 282 283 283 290 292 292 292 292 292 291 287
308 306 297 294 291 288 288 289 291 292 293 292 291 289 288 289 292 293 293 291 290 288 283 282 282 279 278 284 282 277 282 285 286 288 286 282 287 291 289 290 290 291 291 291 291
Wind_Speed
19 20 20 21 20 20 20 18 18 16 12 12 12 9 8 7 3 0 1 3 2 4 1 2 3 2 4 3 3 3 5 2 4 5 3 4 3 1 1 4 3 5 4 2 12
18 19 20 21 20 19 18 18 17 17 15 12 10 10 10 7 1 1 1 2 2 1 1 2 2 3 4 2 3 5 4 6 5 5 2 5 4 7 3 2 5 4 2 4 14
18 19 19 20 20 20 18 17 16 15 16 13 10 8 8 6 2 4 2 3 4 3 4 2 3 2 4 2 2 2 4 4 3 4 3 4 2 5 6 6 9 11 9 12 11
18 18 20 20 20 21 20 17 15 14 15 15 11 8 8 2 4 3 2 2 3 5 3 3 4 4 3 3 1 1 1 3 3 2 4 4 7 4 8 6 1 6 14 14 15
15 17 18 20 20 21 22 20 16 14 14 15 10 5 2 2 7 1 3 3 3 2 4 3 4 3 2 3 2 2 2 2 4 3 2 5 6 6 9 9 2 6 12 17 15
17 16 17 18 20 21 22 22 18 14 15 13 8 4 3 4 2 2 1 2 3 3 2 4 4 3 4 2 3 2 3 5 3 3 2 4 2 1 3 6 6 9 15 15 16
16 18 17 18 19 21 21 22 21 16 15 10 4 2 3 12 3 3 4 2 2 1 4 1 5 2 5 3 0 2 3 6 3 2 3 4 8 12 4 5 8 10 11 13 15
16 17 18 18 19 21 23 23 21 18 10 3 4 1 7 1 3 3 3 3 3 4 5 3 3 6 3 3 5 2 4 3 3 4 2 5 11 8 6 7 11 11 12 14 17
16 17 18 17 19 20 23 26 20 7 1 3 1 4 8 4 2 2 1 5 4 3 4 3 5 4 4 4 4 6 4 4 7 7 3 6 10 6 5 7 11 11 14 14 12
14 16 18 18 20 21 25 23 7 1 2 0 1 3 2 3 3 4 1 4 3 4 3 5 6 3 4 4 6 6 4 5 7 4 4 5 17 18 7 9 18 15 13 14 16
13 16 17 17 20 21 13 6 7 5 5 7 4 4 2 1 0 1 2 5 3 4 5 2 2 9 12 8 2 3 4 7 5 4 4 11 16 20 21 9 17 16 12 16 21
11 15 17 17 19 22 3 5 3 3 8 5 5 6 4 2 3 4 4 6 5 8 5 4 12 9 5 4 4 4 4 8 8 1 6 8 18 18 18 21 19 18 13 17 12
7 13 16 17 18 5 2 4 2 3 1 9 5 4 4 6 6 5 10 4 5 6 8 9 5 6 6 4 6 5 7 5 8 5 4 8 11 8 7 8 15 12 10 12 17
7 6 13 16 2 3 1 1 1 1 3 9 5 4 3 3 5 1 4 5 2 10 10 8 2 7 4 7 8 4 6 2 3 3 5 4 18 4 7 11 9 11 10 13 13
8 6 8 3 4 0 1 1 1 2 6 6 3 1 3 6 3 1 1 2 7 7 8 9 7 5 5 8 9 7 3 4 1 3 3 4 6 3 4 8 17 10 9 9 10
10 8 3 0 1 3 1 0 2 6 10 5 4 4 3 3 2 1 2 4 1 4 2 6 1 6 6 3 1 6 4 4 4 2 2 10 11 6 7 11 8 7 7 6 7
13 13 7 4 3 1 2 2 3 7 4 5 5 4 2 6 4 6 6 6 7 5 6 1 5 3 4 5 3 3 6 6 7 3 11 5 3 15 7 11 13 12 8 7 6
13 10 7 5 3 4 3 5 11 8 10 3 4 2 7 8 5 7 5 5 8 2 4 6 10 10 6 8 9 7 9 9 10 5 17 2 12 12 17 14 7 6 7 5 7
13 3 3 5 7 3 3 8 12 11 10 10 4 4 6 5 6 6 9 8 11 17 11 8 11 2 1 3 4 6 7 3 6 2 4 7 16 6 6 11 6 11 7 11 10
6 5 7 12 10 4 3 21 10 9 8 5 16 13 12 10 9 9 10 7 7 16 7 5 6 2 3 3 2 5 5 5 2 4 7 17 30 20 12 15 11 12 14 13 8
7 4 3 15 9 3 11 12 6 8 7 9 11 7 9 11 10 8 10 5 9 6 9 6 6 3 4 11 14 5 3 2 2 5 7 12 21 7 8 10 12 14 9 10 9
3 5 5 13 11 6 15 10 8 6 4 10 6 10 13 10 8 8 11 11 9 8 12 7 6 9 17 1 1 2 12 14 7 9 5 2 34 3 4 8 8 7 7 6 8
4 5 3 7 9 11 4 4 5 7 10 11 13 9 7 9 6 10 11 7 11 11 13 10 5 3 10 2 4 7 8 8 1 1 20 9 32 7 6 8 8 8 7 10 10
6 5 3 5 8 15 15 10 10 6 17 5 6 7 3 6 12 10 7 6 6 6 5 12 8 13 21 17 6 6 9 18 21 18 20 32 34 38 33 22 15 8 10 14 12
5 4 10 9 17 18 15 9 22 11 7 13 9 23 17 15 16 23 12 8 3 3 1 9 13 13 22 24 9 5 8 19 21 30 25 28 24 40 34 21 26 22 19 15 10
7 5 4 5 15 23 22 20 26 22 12 13 22 17 23 25 25 20 17 10 7 2 7 3 13 13 24 26 16 16 22 24 26 34 26 23 33 45 28 23 28 27 22 21 16
6 6 4 11 14 13 23 31 28 25 17 24 21 18 17 32 29 25 13 8 8 7 8 9 6 7 25 24 11 6 33 28 31 38 27 30 44 35 28 25 32 25 22 26 21
Wind_Direction
9 6 5 4 3 1 359 353 349 348 352 348 341 329 320 334 295 247 211 185 196 331 88 303 71 61 71 70 72 136 70 215 233 158 243 158 150 2 22 120 236 202 170 273 134
7 4 1 357 357 356 357 352 346 340 342 344 340 327 318 327 101 297 187 294 265 168 121 134 84 116 62 76 21 87 113 217 192 200 258 183 184 170 166 177 243 255 198 117 141
1 360 358 354 353 352 351 350 344 337 331 336 332 328 321 313 357 221 170 313 317 163 136 137 116 96 87 93 360 176 169 212 229 213 172 170 222 160 158 230 220 209 163 164 167
355 354 351 350 350 347 345 345 342 336 325 329 327 330 330 283 231 189 300 341 11 138 117 86 44 66 92 111 284 137 216 208 281 195 155 191 132 220 199 231 111 209 167 169 179
352 350 348 344 344 344 340 338 338 332 321 324 314 325 33 347 259 6 320 345 108 88 61 91 58 129 125 144 139 173 237 237 287 263 235 137 230 234 241 233 151 141 163 181 186
347 347 345 341 339 338 336 330 329 328 317 319 301 281 108 244 147 12 275 23 49 93 67 47 149 172 106 114 140 176 280 275 304 264 242 229 281 330 230 136 164 169 189 190 191
341 341 339 338 336 332 329 324 320 321 313 305 258 259 129 235 142 76 108 98 18 94 115 131 136 118 137 128 138 116 320 322 234 202 247 168 284 233 213 171 193 202 199 199 203
334 335 334 333 332 329 324 318 314 309 301 267 193 159 241 108 165 108 118 61 51 42 96 121 106 107 78 120 33 94 60 21 233 161 209 155 265 267 172 172 223 214 207 205 209
326 329 330 329 328 325 321 313 313 308 88 121 171 139 266 141 175 140 169 149 94 53 53 78 60 91 49 86 7 359 252 229 300 200 150 178 270 241 157 209 241 222 216 212 215
317 323 327 326 325 324 322 306 286 86 60 101 9 34 253 228 146 134 52 133 119 117 76 54 53 72 42 94 239 229 244 247 239 219 211 222 257 274 223 213 243 231 216 213 216
314 319 323 323 323 325 338 357 12 347 28 193 198 237 255 337 294 122 151 111 104 73 172 12 107 210 213 204 172 169 203 236 250 227 212 240 252 258 271 237 254 244 216 213 222
312 317 319 318 320 322 319 84 161 158 310 260 239 276 232 189 263 229 133 156 153 196 128 48 234 195 136 148 158 169 213 258 284 255 195 272 260 261 251 256 255 252 227 224 224
299 315 318 314 316 353 27 136 150 167 198 292 217 208 204 152 219 234 154 148 162 175 187 178 221 105 133 153 163 205 193 227 234 337 259 304 262 234 283 247 267 244 223 213 212
269 299 320 318 355 326 29 141 187 249 42 267 234 251 104 134 262 129 191 148 202 212 159 227 215 159 163 215 149 232 210 214 292 24 254 12 293 237 238 266 254 256 205 221 206
241 261 310 3 290 254 145 344 232 61 296 270 209 165 136 169 123 261 303 91 184 182 136 238 163 158 186 217 164 222 119 138 112 214 13 248 272 216 26 270 265 265 230 220 204
214 215 261 84 40 286 323 84 67 45 249 287 155 184 137 186 185 111 148 50 119 141 264 253 360 168 198 69 129 135 97 71 66 100 257 222 200 154 185 211 260 264 243 219 200
204 194 158 144 212 125 359 54 53 195 290 235 209 170 193 189 210 175 169 183 173 129 228 262 209 174 157 103 27 105 68 326 319 345 247 133 233 256 230 229 218 228 234 222 224
195 182 192 169 137 127 86 56 221 193 196 86 121 110 195 159 219 177 152 214 240 113 131 186 267 179 183 195 179 174 166 166 242 239 287 64 245 272 218 241 222 246 264 254 230
158 173 188 199 146 114 124 211 213 176 191 164 115 174 236 240 192 153 208 201 204 175 191 178 266 110 201 139 139 182 190 170 97 132 309 241 264 280 214 255 252 247 226 243 233
179 190 192 161 149 128 119 235 212 191 149 153 201 184 201 198 173 188 179 192 214 194 190 222 282 179 156 143 51 176 155 84 359 249 255 269 273 270 215 235 235 244 225 236 235
185 207 176 142 134 188 218 226 219 206 165 171 217 234 214 190 199 205 222 231 199 185 185 157 162 210 134 206 171 140 203 190 185 161 198 269 272 178 186 198 211 238 225 213 220
167 227 167 154 170 201 223 195 186 230 191 240 194 216 215 184 209 229 219 223 149 146 161 202 168 226 239 96 45 174 197 181 188 235 245 144 270 354 351 213 206 237 215 218 225
199 174 236 204 198 208 246 271 228 190 196 195 218 196 184 196 239 191 228 175 153 157 168 175 221 254 271 347 4 212 198 220 282 326 224 198 259 144 171 217 214 247 230 238 228
144 162 178 236 242 216 211 216 232 211 234 214 219 175 156 225 226 250 206 195 193 188 26 167 176 211 238 252 126 189 198 217 215 238 239 233 260 277 260 273 270 242 233 231 217
192 192 166 192 227 227 222 210 226 215 209 199 238 229 214 235 235 241 257 249 97 26 81 167 236 234 253 263 247 209 232 226 219 237 231 255 248 257 271 265 270 267 263 264 216
233 154 183 241 210 219 218 219 238 242 175 213 220 219 226 237 236 254 229 226 194 222 179 175 247 253 255 259 264 243 249 255 246 247 259 258 262 257 278 283 282 276 274 271 246
230 212 181 205 203 199 215 225 230 238 239 235 227 223 224 227 223 246 270 179 200 208 205 185 208 242 258 262 240 232 238 258 266 265 266 266 260 270 265 264 262 265 267 265 266